Regional Weather Roundup
Issued by NWS

Home | Current Version | Previous Version | Text Only | Print | Product List | Glossary Off
Versions: 1 2 3 4 5 6 7 8 9 10 11 12 13 14 15 16 17 18 19 20 21 22 23 24 25 26 27 28 29 30 31 32 33 34 35 36 37 38 39 40 41 42 43 44 45 46 47 48 49 50

000
ASUS43 KLOT 231303
RWRIL

ILLINOIS REGIONAL WEATHER ROUNDUP
NATIONAL WEATHER SERVICE CHICAGO/ROMEOVILLE IL
700 AM CST THU NOV 23 2017

NOTE: "FAIR" INDICATES FEW OR NO CLOUDS BELOW 12,000 FEET WITH NO
SIGNIFICANT WEATHER AND/OR OBSTRUCTIONS TO VISIBILITY.

* THESE STATIONS ARE NOT UNDER NWS QUALITY CONTROL. THEY ALSO MAY NOT
  REPORT WEATHER SUCH AS PRECIPITATION OR FOG.

ILZ001-002-007-009-015-016-024-231400-
NORTHWEST ILLINOIS

CITY           SKY/WX    TMP DP  RH WIND       PRES   REMARKS
MOLINE         CLEAR     31  19  61 SW8       29.99F WCI  23
STERLING*        N/A     30  22  72 VRB3      30.01
SAVANNA*       CLOUDY    28  21  75 S7        30.00R WCI  21
$$

ILZ003-004-008-010-011-017-018-231400-
NORTH CENTRAL ILLINOIS

CITY           SKY/WX    TMP DP  RH WIND       PRES   REMARKS
ROCKFORD       PTCLDY    30  21  69 S7        30.02F WCI  23
FREEPORT*      CLOUDY    28  21  72 S9        29.99S WCI  20
ROCHELLE*      CLEAR     28  23  81 S8        30.01F WCI  20
DE KALB*       CLEAR     28  23  81 S12       30.01F WCI  18
PERU*          CLEAR     30  22  73 S9        30.02F WCI  21
$$

ILZ005-006-012>014-019>023-231400-
NORTHEAST ILLINOIS

CITY           SKY/WX    TMP DP  RH WIND       PRES   REMARKS
CHICAGO-OHARE  CLOUDY    33  20  58 S10       30.02F WCI  25
CHICAGO-MIDWAY NOT AVBL
AURORA         CLOUDY    31  22  69 S8        30.02F WCI  23
LANSING*       CLOUDY    32  25  75 SW8       30.07F WCI  25
JOLIET*        CLOUDY    34  24  67 S8        30.05F WCI  27
WAUKEGAN       CLOUDY    33  20  58 SW13      30.00F WCI  24
DUPAGE AIRPORT CLOUDY    30  23  75 S10       30.01F WCI  21
KANKAKEE*      CLOUDY    32  23  70 S8        30.08F WCI  25
WHEELING       CLOUDY    34  21  59 S9        30.04F WCI  27
MORRIS*        CLOUDY    32  23  69 S7        30.04F WCI  26
ROMEOVILLE*    CLOUDY    33  23  67 SW10      30.04F WCI  24
NORTHERLY ISL    N/A     34  20  57 S9          N/A  WCI  27
$$

LMZ740>746-231400-
SOUTHERN LAKE MICHIGAN

STATION/POSITION SKY/WX   TEMP    WIND        PRES    VSBY  WAVE
                          AIR SEA DIR/SP/G                  HT/PER
                          (F)     (DEG/KT/KT) (MB)    (MI)  (FT/S)
SOUTHERN BUOY              38 47  250/ 17/ 21 1017.9          3/ 5
HARRISON CRIB              35     200/ 15/ 18   N/A
BURNHAM HARBOR             34     190/  7/  9   N/A
CALUMET HARBOR             33     210/  9/ 13 1017.4S
BURNS HARBOR               34     200/  9/ 11 1018.6S
MICHIGAN CITY              32     190/ 10/ 12   N/A
$$

ILZ025>027-034>036-040-047-049-050-058-095>099-231400-
WEST-CENTRAL ILLINOIS

CITY           SKY/WX    TMP DP  RH WIND       PRES   REMARKS
QUINCY         CLEAR     30  19  63 S12       30.03F WCI  20
GALESBURG*     CLEAR     30  23  73 S9        30.01F WCI  22
MACOMB*        CLEAR     31  21  65 S9        30.03F WCI  23
JACKSONVILLE*  CLEAR     31  20  65 S8        30.08S WCI  23
PITTSFIELD*    CLEAR     31  20  64 S6        30.08S WCI  25
$$

ILZ028>032-037-038-041>044-048-051>054-059>061-231400-
CENTRAL ILLINOIS

CITY           SKY/WX    TMP DP  RH WIND       PRES   REMARKS
PONTIAC        CLOUDY    33  25  73 S10       30.06F WCI  24
BLOOMINGTON    CLOUDY    31  23  72 S13       30.06F WCI  21
DECATUR        CLOUDY    32  22  66 S10       30.11F WCI  24
PEORIA         CLEAR     31  22  69 S10       30.04F WCI  22
LACON*         CLEAR     32  20  61 S9        30.02F WCI  24
LINCOLN*       CLOUDY    33  25  73 S9        30.09S WCI  25
SPRINGFIELD    CLOUDY    34  22  61 S13       30.09F WCI  25
TAYLORVILLE    CLOUDY    30  23  74 S12       30.11F WCI  21
$$

ILZ033-039-045-046-055>057-062-063-231400-
EAST-CENTRAL ILLINOIS

CITY           SKY/WX    TMP DP  RH WIND       PRES   REMARKS
CHAMPAIGN      CLOUDY    32  24  72 S9        30.11S WCI  24
DANVILLE*      CLOUDY    31  22  67 S7        30.08F WCI  24
RANTOUL*       CLOUDY    34  25  70 S9        30.10S WCI  26
MATTOON        CLOUDY    30  23  75 S9        30.11F WCI  22
PARIS*         CLOUDY    31  26  80 S7        30.14S WCI  24
$$

ILZ079-100>102-231400-
SOUTHWEST ILLINOIS

CITY           SKY/WX    TMP DP  RH WIND       PRES   REMARKS
ALTON          CLEAR     28  23  80 S6        30.13S WCI  22
BELLEVILLE     CLEAR     28  22  76 S3        30.14R
CAHOKIA*       CLEAR     28  21  75 S6        30.14S WCI  22
SPARTA*        CLEAR     31  22  69 S5        30.16S WCI  26
$$

ILZ064>066-069>071-074>076-080>082-084>086-088>090-092>094-231400-
SOUTH-CENTRAL ILLINOIS

CITY           SKY/WX    TMP DP  RH WIND       PRES   REMARKS
CARBONDALE     CLEAR     23  22  96 CALM      30.17F
CAIRO*         PTCLDY    23  22  94 CALM      30.19S
EFFINGHAM*     CLOUDY    29  22  75 S3        30.17R
MARION         PTCLDY    27  25  93 SE7       30.18S WCI  19
MT. VERNON     CLEAR     22  21  96 CALM      30.17S
CENTRALIA*     MOCLDY    29  25  84 S6        30.14F FOG     WCI  23
SALEM*         CLEAR     31  23  72 S5        30.15S WCI  26
METROPOLIS*    CLOUDY    23  21  93 CALM      30.19S
$$

ILZ067-068-072-073-078-083-087-091-231400-
SOUTHEAST ILLINOIS

CITY           SKY/WX    TMP DP  RH WIND       PRES   REMARKS
LAWRENCEVILLE  CLOUDY    29  25  85 S3        30.17S
FLORA*         MOCLDY    28  24  87 S5        30.17S WCI  22
FAIRFIELD*     PTCLDY    23  22  96 CALM      30.16S
HARRISBURG*    CLOUDY    24  24  98 CALM      30.19S
CARMI*         CLOUDY    23  22  96 CALM      30.18R
$$

ABBREVIATIONS USED IN REMARKS
   TC - TEMPERATURE IN CELSIUS
  WCI - WIND CHILL INDEX
   HX - HEAT INDEX
  VSB - VISIBILITY
$$





USA.gov is the U.S. government's official web portal to all federal, state and local government web resources and services.